[[{"header":{"parameterUnit":"m.s-1","parameterCategory":1,"la1":30.2991,"la2":30.254,"lo1":-89.0895,"lo2":-89.0444,"dy":0.0017,"dx":0.0017,"nx":28,"ny":28,"refTime":"2025-08-26T03:00:00:Z","depth":0,"parameterNumber":2,"parameterNumberName":"U-component_of_WINDS"},"data":[0,0,0,0,0,0,0,0,0,0,0,0,0,0,0,0,0,0,0,0,0,0,0,0,0,0,0,0,0,0,0,0,0,0,0,0,0,0,0,0,0,0,0,0,0,0,0,0,0,0,0,0,0,0,0,0,0,0,-2.2999,-2.2999,0,-2.2943,-2.2942,-2.2942,-2.2812,-2.2809,-2.2806,-2.2804,-2.275,-2.2752,-2.2753,0,0,0,0,0,0,0,0,0,0,0,0,0,-2.2999,-2.3,-2.2999,-2.2998,-2.2998,-2.2943,-2.2942,-2.2942,-2.2812,-2.2809,-2.2805,-2.2802,-2.275,-2.2751,-2.2753,0,0,0,0,0,0,0,0,0,0,0,0,0,-2.2977,-2.3,-2.2999,-2.2926,-2.2919,-2.2943,-2.2942,-2.2941,-2.2813,-2.2809,-2.2805,-2.2801,-2.275,-2.2751,-2.2753,-2.2844,0,0,-2.2758,-2.2759,0,0,0,0,0,0,0,0,-2.2978,-2.2977,-2.2938,-2.2932,-2.2924,-2.288,-2.2922,-2.2909,-2.2814,-2.2853,-2.2804,-2.2799,-2.2797,-2.2795,-2.2793,-2.2842,-2.284,-2.2758,-2.2759,-2.276,-2.276,0,0,0,0,0,0,0,-2.298,-2.2979,-2.2977,-2.2938,-2.2929,-2.2898,-2.289,-2.2919,-2.2849,-2.285,-2.284,-2.2835,-2.2793,-2.2792,-2.2791,-2.2839,-2.2758,-2.276,-2.2761,-2.2761,-2.2962,-2.2966,0,0,0,0,0,0,-2.2991,-2.2981,-2.2979,-2.2975,-2.2941,-2.2901,-2.2893,-2.2898,-2.2848,-2.2837,-2.2838,-2.2829,-2.2791,-2.2789,-2.2789,-2.2894,-2.276,-2.2761,-2.2762,-2.2957,-2.2963,-2.2967,0,0,0,0,0,0,-2.2992,-2.2992,-2.2981,-2.2975,-2.2972,-2.2906,-2.2913,-2.2899,-2.2898,-2.284,-2.2827,-2.2851,-2.2788,-2.2786,-2.2832,-2.289,-2.2762,-2.2764,-2.2952,-2.2959,-2.2965,-2.3105,0,0,0,0,0,0,-2.2992,-2.2993,-2.3026,-2.2977,-2.2972,-2.3024,-2.2916,-2.2901,-2.2901,-2.2888,-2.2848,-2.2837,-2.2784,-2.283,-2.2833,-2.289,-2.2765,-2.2947,-2.2955,-2.2963,-2.3095,-2.3115,-2.3133,0,0,0,0,0,-2.2993,-2.3068,-2.3029,-2.3029,-2.3012,-2.3028,-2.3025,-2.2962,-2.2906,-2.294,-2.2902,-2.2838,-2.2883,-2.2836,-2.2838,-2.2897,-2.2943,-2.2953,-2.2962,-2.3086,-2.3111,-2.3132,0,0,0,0,0,0,-2.3128,-2.3061,-2.3016,-2.3077,-2.3059,-2.3006,-2.3046,-2.299,-2.2988,-2.2977,-2.29,-2.2892,-2.2948,-2.2926,-2.2875,-2.2983,-2.2903,-2.2913,-2.2996,-2.3019,-2.3038,-2.3043,-2.2766,0,0,0,0,0,-2.3164,-2.3181,-2.3122,-2.3182,-2.3175,-2.3113,-2.3117,-2.307,-2.3048,-2.304,-2.3006,-2.2989,-2.2999,-2.3007,-2.3013,-2.309,-2.3081,-2.3132,-2.3151,-2.3167,-2.3178,-2.3219,-2.3242,-2.2999,-2.2999,-2.2999,0,0,-2.3241,-2.3206,-2.3222,-2.3209,-2.3189,-2.321,-2.3107,-2.3133,-2.3149,-2.3045,-2.3086,-2.306,-2.3036,-2.3098,-2.3124,-2.3082,-2.3243,-2.3179,-2.3192,-2.3195,-2.3232,-2.3255,-2.3275,-2.3006,-2.3005,-2.3004,0,0,-2.3391,-2.3366,-2.3414,-2.3396,-2.3367,-2.3325,-2.3337,-2.3292,-2.3271,-2.331,-2.3233,-2.3251,-2.3269,-2.3256,-2.3252,-2.3398,-2.334,-2.3402,-2.3503,-2.3544,-2.3563,-2.3579,-2.3634,-2.3654,-2.3412,-2.3413,-2.3413,0,-2.3491,-2.3518,-2.3446,-2.3478,-2.3475,-2.338,-2.343,-2.3417,-2.3392,-2.3393,-2.3346,-2.3368,-2.3345,-2.3404,-2.344,-2.3438,-2.3451,-2.3407,-2.3565,-2.3581,-2.3596,-2.3647,-2.3668,-2.3421,-2.342,-2.3419,-2.3418,0,-2.3642,-2.3663,-2.3705,-2.3683,-2.3685,-2.3725,-2.3662,-2.3672,-2.3625,-2.3589,-2.3631,-2.36,-2.3599,-2.3609,-2.3563,-2.3662,-2.3637,-2.3579,-2.3497,-2.3628,-2.3675,-2.3694,-2.3432,-2.3429,-2.3427,-2.3425,0,0,-2.3877,-2.3815,-2.3832,-2.3821,-2.3782,-2.3798,-2.3834,-2.3832,-2.3844,-2.383,-2.3861,-2.3879,-2.3825,-2.382,-2.3772,-2.3808,-2.3929,-2.3745,-2.3744,-2.3783,-2.4039,-2.4085,-2.4108,-2.3889,-2.3893,-2.3895,-2.4042,0,-2.4021,-2.4079,-2.4016,-2.4088,-2.4107,-2.4018,-2.405,-2.4031,-2.3998,-2.4011,-2.3974,-2.3989,-2.3916,-2.3912,-2.3944,-2.3908,-2.398,-2.3896,-2.392,-2.3921,-2.3931,-2.4132,-2.4181,-2.432,-2.4059,-2.4062,-2.4064,0,-2.4195,-2.4189,-2.4263,-2.4221,-2.4226,-2.4257,-2.425,-2.4262,-2.424,-2.4213,-2.4208,-2.415,-2.4185,-2.4104,-2.4152,-2.4097,-2.4103,-2.4087,-2.409,-2.4092,-2.4003,-2.4142,-2.4363,-2.4385,-2.4092,-2.409,-2.4088,0,-2.4363,-2.4372,-2.4418,-2.4412,-2.4363,-2.4387,-2.4368,-2.434,-2.4344,-2.4338,-2.434,-2.4339,-2.434,-2.4342,-2.4286,-2.4231,-2.4343,-2.4256,-2.4324,-2.4326,-2.4354,-2.4353,-2.4581,-2.4354,-2.4353,-2.4353,-2.4352,0,-2.453,-2.458,-2.4493,-2.4522,-2.4575,-2.4503,-2.4558,-2.453,-2.4507,-2.453,-2.4452,-2.4476,-2.4399,-2.4415,-2.4372,-2.442,-2.442,-2.4402,-2.439,-2.441,-2.4413,-2.4415,-2.4405,-2.4358,-2.4357,-2.4356,-2.4355,0,-2.4727,-2.467,-2.4715,-2.4665,-2.4653,-2.4696,-2.4653,-2.4679,-2.464,-2.4671,-2.4674,-2.4614,-2.4629,-2.4573,-2.4579,-2.4549,-2.4622,-2.4593,-2.463,-2.4622,-2.4695,-2.469,-2.4934,-2.4963,-2.4715,-2.4717,-2.4719,0,-2.4839,-2.4875,-2.4829,-2.4838,-2.4823,-2.4838,-2.4841,-2.4772,-2.4778,-2.4755,-2.4784,-2.4792,-2.4796,-2.4824,-2.4783,-2.4787,-2.4759,-2.4844,-2.476,-2.478,-2.4764,-2.4764,-2.4768,-2.4863,-2.4866,-2.4869,-2.4871,0,-2.5045,-2.5015,-2.5021,-2.5018,-2.5023,-2.5018,-2.5007,-2.502,-2.4945,-2.4956,-2.497,-2.4973,-2.4978,-2.4989,-2.4984,-2.4966,-2.4908,-2.4897,-2.4914,-2.4936,-2.4957,-2.495,-2.4681,-2.4893,-2.4891,-2.4889,-2.4888,-2.4887,-2.5204,-2.5232,-2.5205,-2.5214,-2.5199,-2.5191,-2.5213,-2.5177,-2.5187,-2.5185,-2.5144,-2.5167,-2.5144,-2.5132,-2.5121,-2.5139,-2.5099,-2.5123,-2.5129,-2.5137,-2.515,-2.4952,-2.5137,-2.5137,-2.5136,-2.5135,-2.5135,0,-2.5408,-2.5385,-2.5395,-2.5382,-2.5391,-2.5332,-2.5318,-2.5329,-2.535,-2.5333,-2.5338,-2.5355,-2.5365,-2.5324,-2.5328,-2.5351,-2.5325,-2.5355,-2.5354,-2.5351,-2.5184,-2.517,-2.5377,-2.5377,-2.5376,-2.5376,-2.5376,-2.5376,-2.5515,-2.5561,-2.5528,-2.5566,-2.5543,-2.5564,-2.5561,-2.5555,-2.5541,-2.5563,-2.5571,-2.5543,-2.5518,-2.552,-2.5527,-2.5515,-2.5521,-2.5562,-2.5541,-2.5386,-2.5363,-2.534,-2.5327,-2.5563,-2.5563,-2.5707,-2.5708,-2.571]},{"header":{"parameterUnit":"m.s-1","parameterCategory":1,"la1":30.2991,"la2":30.254,"lo1":-89.0895,"lo2":-89.0444,"dy":0.0017,"dx":0.0017,"nx":28,"ny":28,"refTime":"2025-08-26T03:00:00:Z","depth":0,"parameterNumber":3,"parameterNumberName":"V-component_of_WINDS"},"data":[0,0,0,0,0,0,0,0,0,0,0,0,0,0,0,0,0,0,0,0,0,0,0,0,0,0,0,0,0,0,0,0,0,0,0,0,0,0,0,0,0,0,0,0,0,0,0,0,0,0,0,0,0,0,0,0,0,0,-0.9508,-0.9508,0,-0.9545,-0.9545,-0.9546,-0.9572,-0.9572,-0.9573,-0.9573,-0.9611,-0.9612,-0.9612,0,0,0,0,0,0,0,0,0,0,0,0,0,-0.946,-0.9461,-0.9508,-0.9508,-0.9509,-0.9545,-0.9545,-0.9546,-0.9572,-0.9572,-0.9573,-0.9573,-0.9611,-0.9612,-0.9613,0,0,0,0,0,0,0,0,0,0,0,0,0,-0.9487,-0.9461,-0.9508,-0.9526,-0.9528,-0.9545,-0.9545,-0.9546,-0.9572,-0.9572,-0.9573,-0.9573,-0.961,-0.9611,-0.9613,-0.9614,0,0,-0.9616,-0.9617,0,0,0,0,0,0,0,0,-0.9486,-0.9489,-0.9523,-0.9525,-0.9527,-0.9554,-0.9542,-0.9569,-0.9572,-0.9555,-0.9573,-0.9573,-0.9592,-0.9595,-0.9601,-0.9615,-0.9617,-0.9616,-0.9617,-0.9618,-0.9618,0,0,0,0,0,0,0,-0.9484,-0.9488,-0.9523,-0.9524,-0.9526,-0.9533,-0.9537,-0.9548,-0.9571,-0.9557,-0.9559,-0.9563,-0.9593,-0.96,-0.9602,-0.9618,-0.9616,-0.9618,-0.9618,-0.9619,-0.9636,-0.9636,0,0,0,0,0,0,-0.9479,-0.9486,-0.9521,-0.9524,-0.9507,-0.9533,-0.9538,-0.9545,-0.9571,-0.9576,-0.9563,-0.9564,-0.9597,-0.96,-0.9603,-0.9607,-0.9618,-0.9619,-0.962,-0.9637,-0.9636,-0.9636,0,0,0,0,0,0,-0.9478,-0.9482,-0.952,-0.9505,-0.9511,-0.9534,-0.9542,-0.9546,-0.9552,-0.9576,-0.958,-0.9565,-0.9598,-0.9602,-0.9611,-0.9609,-0.9619,-0.9621,-0.9637,-0.9636,-0.9636,-0.9615,0,0,0,0,0,0,-0.9476,-0.9481,-0.9482,-0.9505,-0.9511,-0.9527,-0.9542,-0.9546,-0.9555,-0.9557,-0.9579,-0.9583,-0.9598,-0.9609,-0.9612,-0.9611,-0.9621,-0.9637,-0.9637,-0.9636,-0.9616,-0.9614,-0.9612,0,0,0,0,0,-0.9475,-0.9474,-0.9482,-0.9486,-0.9512,-0.9527,-0.953,-0.9548,-0.9554,-0.9555,-0.957,-0.9582,-0.9608,-0.961,-0.9614,-0.9613,-0.9637,-0.9637,-0.9636,-0.9617,-0.9614,-0.9612,0,0,0,0,0,0,-0.945,-0.9477,-0.9486,-0.9493,-0.9507,-0.9531,-0.9533,-0.9544,-0.9557,-0.9559,-0.958,-0.9585,-0.9592,-0.9603,-0.9604,-0.9615,-0.9625,-0.9625,-0.9608,-0.9606,-0.9604,-0.9602,-0.9622,0,0,0,0,0,-0.9445,-0.9454,-0.9478,-0.9482,-0.9489,-0.9509,-0.9516,-0.9529,-0.9544,-0.955,-0.9566,-0.9581,-0.9592,-0.96,-0.9611,-0.9617,-0.9623,-0.9618,-0.9616,-0.9614,-0.9615,-0.9619,-0.9618,-0.9634,-0.9634,-0.9634,0,0,-0.9435,-0.9452,-0.9456,-0.9477,-0.949,-0.9499,-0.9514,-0.9523,-0.9531,-0.9552,-0.9562,-0.9574,-0.9592,-0.96,-0.9604,-0.9609,-0.9611,-0.9614,-0.9612,-0.9613,-0.9619,-0.9617,-0.9616,-0.9634,-0.9634,-0.9634,0,0,-0.9423,-0.9436,-0.9441,-0.9454,-0.9473,-0.9486,-0.9488,-0.951,-0.9519,-0.9529,-0.9546,-0.9554,-0.9574,-0.9586,-0.9595,-0.9588,-0.96,-0.9591,-0.9581,-0.9586,-0.9584,-0.9583,-0.9582,-0.9581,-0.9591,-0.9591,-0.9591,0,-0.9409,-0.9424,-0.9443,-0.9451,-0.946,-0.948,-0.9486,-0.9496,-0.9518,-0.9524,-0.9529,-0.9555,-0.9568,-0.9579,-0.9578,-0.9584,-0.9586,-0.9589,-0.9583,-0.9582,-0.9582,-0.958,-0.958,-0.959,-0.959,-0.959,-0.959,0,-0.9407,-0.9417,-0.9419,-0.944,-0.9449,-0.9456,-0.9475,-0.9482,-0.9494,-0.9507,-0.9518,-0.9535,-0.9551,-0.9554,-0.9565,-0.9568,-0.9571,-0.9579,-0.9589,-0.9579,-0.9578,-0.9578,-0.9588,-0.9589,-0.9589,-0.9589,0,0,-0.938,-0.9412,-0.9412,-0.9422,-0.9445,-0.9453,-0.9461,-0.9477,-0.9483,-0.9497,-0.9505,-0.9521,-0.9529,-0.9539,-0.9552,-0.9555,-0.955,-0.9564,-0.9565,-0.9562,-0.9555,-0.9549,-0.9548,-0.9558,-0.9558,-0.9558,-0.9554,0,-0.9373,-0.9388,-0.9405,-0.9415,-0.9426,-0.9444,-0.9451,-0.9466,-0.9478,-0.9489,-0.9503,-0.9514,-0.9524,-0.953,-0.9535,-0.955,-0.9549,-0.955,-0.9566,-0.9566,-0.9562,-0.9548,-0.9542,-0.9537,-0.9553,-0.9553,-0.9553,0,-0.9366,-0.938,-0.9391,-0.9413,-0.9418,-0.9424,-0.944,-0.945,-0.9467,-0.9476,-0.9487,-0.9501,-0.951,-0.9518,-0.9532,-0.9533,-0.954,-0.9548,-0.9549,-0.9552,-0.956,-0.9551,-0.9536,-0.9536,-0.9553,-0.9553,-0.9553,0,-0.9347,-0.9368,-0.9378,-0.9386,-0.9412,-0.9416,-0.9427,-0.9444,-0.9453,-0.9467,-0.9473,-0.9488,-0.9496,-0.9507,-0.9525,-0.9529,-0.9537,-0.9546,-0.9546,-0.9545,-0.9548,-0.9547,-0.9534,-0.955,-0.955,-0.955,-0.955,0,-0.9338,-0.9344,-0.937,-0.9376,-0.9384,-0.9404,-0.9411,-0.9423,-0.9439,-0.9448,-0.9464,-0.9472,-0.9494,-0.9505,-0.9518,-0.9528,-0.9532,-0.954,-0.9544,-0.9539,-0.9538,-0.9545,-0.9546,-0.955,-0.955,-0.955,-0.955,0,-0.9319,-0.9336,-0.9349,-0.9372,-0.9378,-0.9383,-0.9403,-0.941,-0.9423,-0.9434,-0.9438,-0.9459,-0.9473,-0.9491,-0.951,-0.9519,-0.9528,-0.9533,-0.9523,-0.9525,-0.9524,-0.9524,-0.9515,-0.9516,-0.953,-0.953,-0.953,0,-0.9312,-0.9317,-0.9342,-0.9349,-0.9359,-0.9371,-0.938,-0.9399,-0.9408,-0.9428,-0.9432,-0.9447,-0.946,-0.9481,-0.9498,-0.9513,-0.9519,-0.9515,-0.9522,-0.9517,-0.9521,-0.9521,-0.9522,-0.9514,-0.9514,-0.9513,-0.9513,0,-0.9299,-0.9307,-0.932,-0.9336,-0.9346,-0.9359,-0.9373,-0.9378,-0.9401,-0.941,-0.9424,-0.9434,-0.9454,-0.9468,-0.9485,-0.9497,-0.9509,-0.9511,-0.9512,-0.9508,-0.9502,-0.9506,-0.9519,-0.9511,-0.9512,-0.9512,-0.9512,-0.9512,-0.9286,-0.9293,-0.9311,-0.9324,-0.9337,-0.935,-0.9358,-0.9372,-0.9384,-0.9402,-0.9412,-0.9427,-0.9444,-0.9468,-0.9479,-0.949,-0.9495,-0.9496,-0.9496,-0.9496,-0.9495,-0.9499,-0.9493,-0.9493,-0.9493,-0.9493,-0.9493,0,-0.9275,-0.9288,-0.93,-0.9319,-0.933,-0.934,-0.9357,-0.9365,-0.9377,-0.9392,-0.9405,-0.9421,-0.9436,-0.9454,-0.947,-0.9475,-0.9481,-0.9479,-0.9479,-0.9482,-0.949,-0.9488,-0.9474,-0.9474,-0.9474,-0.9474,-0.9474,-0.9474,-0.927,-0.9282,-0.9293,-0.931,-0.9323,-0.9337,-0.9345,-0.9357,-0.937,-0.9387,-0.94,-0.9411,-0.9428,-0.9445,-0.9459,-0.9464,-0.9469,-0.9465,-0.9472,-0.948,-0.9481,-0.9483,-0.9481,-0.9466,-0.9466,-0.9464,-0.9464,-0.9464]}]]